Rechercher aéroport 
image banner adimage banner adimage banner ad
image banner ad

CN33 - Airport Imperial Bldg Helistop

Situé à El Segundo, United States

ICAO - CN33, IATA -

Données fournies par Airmate  

Information générale

Coordonnées: N33°55'49" W118°23'49"
Élévation : 238 feet MSL.
Variation magnétique : 14° East
Voir autres Aéroports à California

Données opérationnelles

Special qualification required
Heure actuelle UTC:
Heure actuelle locale:
Météo à : KLAX - Los Angeles Intl ( 2 km )
METAR: KLAX 231353Z 00000KT 5SM BR FEW006 FEW009 SCT160 17/15 A2993 RMK AO2 SLP131 T01720150
TAF: KLAX 231303Z 2313/2418 19006KT 5SM BR SCT004 FM231600 26007KT P6SM SKC FM232000 26014KT P6SM SKC FM240300 26007KT P6SM SKC FM240800 VRB03KT 6SM BR SCT007 FM240900 VRB03KT P6SM OVC008 FM241700 25007KT P6SM FEW010
Voir NOTAMs / SUP AIP / TFR affectant cet aéroport [VIEW]
Fréquences de communication: [VIEW]

Pistes:

Coordonnées de l'aéroport

Adresse: El Segundo United States

Vue satellite de CN33